#timestamp,LO_Frequency,Hit,StdDev 
1686790815.1,286047013.2,Y
1686790835.8,286047006.4,P
1686790855.7,286047010.8,P
1686790875.5,286047011.7,P
1686790895.4,286047011.4,Y
1686790915.2,286047001.4,P
1686790935.0,286047005.0,N
1686790935.9,286047005.0,N
1686790955.8,286047006.5,N
1686790975.6,286047009.7,Y
1686790995.5,286047008.9,P
1686791015.3,286047011.5,P
1686791035.1,286047009.3,P
1686791055.9,286047013.5,Y
1686791075.7,286047005.9,P
1686791095.5,286047007.2,P
1686791115.4,286047006.4,P
1686791135.2,286047006.1,Y
1686791155.1,286047002.3,P
1686791156.0,286047002.3,N
1686791175.8,286047001.6,N
1686791195.6,286047001.3,N
1686791215.5,286047002.7,N
1686791235.3,286047000.6,N
1686791255.1,286047001.8,N
1686791275.9,286047004.3,N
1686791295.7,286047001.7,N
1686791315.6,286047003.9,N
1686791335.4,286047003.6,N
1686791355.2,286047003.7,N
1686791375.1,286047006.5,Y
1686791376.0,286047006.5,P
1686791395.8,286047008.6,P
1686791415.7,286047008.3,P
1686791435.5,286047006.7,N
1686791455.3,286047006.3,Y
1686791475.2,286046998.3,P
1686791495.0,286047000.7,N
1686791495.9,286047000.7,N
1686791515.8,286047004.0,N
1686791535.6,286047002.8,N
1686791555.4,286047000.2,N
1686791575.3,286046998.8,N
1686791595.1,286047000.5,N
1686791615.8,286047002.2,N
1686791635.7,286046999.8,N
1686791655.5,286047002.7,N
1686791675.4,286047001.6,N
1686791695.2,286047001.8,N
1686791715.0,286047002.2,N
1686791715.9,286047002.2,N
1686791735.8,286047004.3,N
1686791755.6,286047002.3,N
1686791775.4,286047001.9,N
1686791795.3,286047000.4,N
1686791815.1,286047000.8,N
1686791835.9,286046998.4,N
1686791855.7,286047002.6,N
1686791875.5,286047002.2,N
1686791895.4,286047000.2,N
1686791915.2,286047002.6,N
1686791935.0,286047004.1,N
1686791935.9,286047004.1,N
1686791955.8,286047003.7,N
1686791975.6,286047003.7,N
1686791995.5,286047005.9,Y
1686792015.3,286047001.4,P
1686792035.1,286047004.2,P
1686792055.9,286047005.8,P
1686792075.7,286047003.8,N
1686792095.6,286047007.3,Y
1686792115.4,286047004.4,P
1686792135.2,286047003.9,P
1686792155.1,286047001.6,P
1686792156.0,286047001.6,N
1686792175.8,286047004.3,Y
1686792195.6,286047002.6,P
1686792215.5,286047002.1,P
1686792235.3,286047001.8,P
1686792255.2,286047002.7,Y
1686792275.9,286047002.7,P
1686792295.7,286047000.6,P
1686792315.6,286047002.1,N
1686792335.4,286047003.8,Y
1686792355.3,286046999.9,P
1686792375.1,286047001.3,N
1686792376.0,286047001.3,N
1686792395.8,286047004.8,Y
1686792415.7,286047001.4,P
1686792435.5,286047004.2,P
1686792455.3,286047003.0,N
1686792475.2,286047005.2,Y
1686792495.0,286047002.9,P
1686792495.9,286047002.9,P
1686792515.8,286047007.6,P
1686792535.6,286047007.2,Y
1686792555.4,286046999.8,P
1686792575.3,286046999.0,N
1686792595.1,286046999.9,N
1686792615.9,286047000.0,N
1686792635.7,286046997.4,N
1686792655.5,286046997.2,N
1686792675.4,286046995.2,N
1686792695.2,286046995.6,N
1686792715.0,286046999.3,N
1686792715.9,286046999.3,N
1686792735.8,286046999.2,N
1686792755.6,286046995.4,N
1686792775.5,286046997.9,N
1686792795.3,286046999.5,N
1686792815.1,286046995.2,N
1686792835.9,286046998.0,N
1686792855.7,286046996.0,N
1686792875.5,286046994.5,N
1686792895.4,286046992.6,Y
1686792915.2,286046991.7,P
1686792935.1,286046991.0,N
1686792936.0,286046991.0,N
1686792955.8,286046989.4,Y
1686792975.6,286046995.7,P
1686792995.5,286046993.5,P
1686793015.3,286046990.2,P
1686793035.1,286046989.0,Y
1686793055.9,286046997.9,P
1686793075.7,286046999.3,N
1686793095.6,286046996.9,N
1686793115.4,286046997.9,N
1686793135.2,286046998.0,N
1686793155.1,286046996.6,N
1686793156.0,286046996.6,N
1686793175.8,286047000.1,N
1686793195.7,286047001.5,N
1686793215.5,286047005.4,N
1686793235.3,286047008.4,N
1686793255.2,286047010.2,N
1686793275.0,286047011.8,N
1686793275.9,286047011.8,N
1686793295.7,286047012.6,N
1686793315.6,286047014.8,N
1686793335.4,286047015.7,N
1686793355.3,286047015.7,N
1686793375.1,286047020.4,N
1686793395.8,286047020.8,N
1686793415.7,286047024.3,N
1686793435.5,286047029.6,Y
1686793455.4,286047022.8,P
1686793475.2,286047021.6,N
1686793495.0,286047023.0,P
1686793495.9,286047023.0,Y
1686793515.8,286047005.0,P
1686793535.6,286047006.4,N
1686793555.5,286047012.1,N
1686793575.3,286047014.3,N
1686793595.1,286047018.2,Y
1686793615.9,286047008.4,P
1686793635.7,286047011.2,P
1686793655.5,286047013.7,P
1686793675.4,286047014.7,Y
1686793695.2,286047005.3,P
1686793715.1,286047005.4,N
1686793716.0,286047005.4,N
1686793735.8,286047008.9,Y
1686793755.6,286047001.5,P
1686793775.5,286047004.4,N
1686793795.3,286047001.6,N
1686793815.2,286047001.3,N
1686793835.9,286047006.0,N
1686793855.7,286047003.5,N
1686793875.6,286047002.7,N
1686793895.4,286046999.1,N
1686793915.3,286046998.7,N
1686793935.1,286046999.0,N
1686793936.0,286046999.0,N
1686793955.8,286046999.8,N
1686793975.7,286046998.6,N
1686793995.5,286046999.6,N
1686794015.3,286046995.4,N
1686794035.2,286046995.1,N
1686794055.0,286046997.7,N
1686794055.9,286046997.7,N
1686794075.8,286046997.4,N
1686794095.6,286046995.2,N
1686794115.4,286046998.0,N
1686794135.3,286046995.6,N
1686794155.1,286046997.5,N
1686794175.8,286047000.8,N
1686794195.7,286047000.8,N
1686794215.5,286046998.3,N
1686794235.4,286047001.1,N
1686794255.2,286047002.3,N
1686794275.0,286046998.4,N
1686794275.9,286046998.4,N
1686794295.8,286046998.8,N
1686794315.6,286046999.0,N
1686794335.4,286046999.3,N
1686794355.3,286046997.2,N
1686794375.1,286046996.9,N
1686794395.9,286046999.3,N
